Time,TemperatureF,DewpointF,PressureIn,WindDirection,WindDirectionDegrees,WindSpeedMPH,WindSpeedGustMPH,Humidity,HourlyPrecipIn,Conditions,Clouds,dailyrainin,SolarRadiationWatts/m^2,SoftwareType,DateUTC
2013-06-11 00:02:00,74.0,22.0,-100.00,ESE,115,8.0,14.0,14,0.00,,,0.00,365.000000,,2013-06-11 00:02:00,
2013-06-11 00:32:00,74.0,22.0,-100.00,North,3,4.0,11.0,14,0.00,,,0.00,158.000000,,2013-06-11 00:32:00,
2013-06-11 00:43:00,74.0,22.0,-100.00,North,3,4.0,11.0,14,0.00,,,0.00,158.000000,,2013-06-11 00:43:00,
2013-06-11 00:52:00,74.0,22.0,-100.00,North,3,4.0,11.0,14,0.00,,,0.00,158.000000,,2013-06-11 00:52:00,
2013-06-11 01:02:00,74.0,22.0,-100.00,North,3,4.0,11.0,14,0.00,,,0.00,158.000000,,2013-06-11 01:02:00,
2013-06-11 01:33:00,70.0,25.0,-100.00,NNW,344,5.0,10.0,18,0.00,,,-99.99,83.000000,,2013-06-11 01:33:00,
2013-06-11 01:42:00,70.0,25.0,-100.00,NNW,344,5.0,10.0,18,0.00,,,-99.99,83.000000,,2013-06-11 01:42:00,
2013-06-11 01:53:00,70.0,25.0,-100.00,NNW,344,5.0,10.0,18,0.00,,,-99.99,83.000000,,2013-06-11 01:53:00,
2013-06-11 02:02:00,70.0,25.0,-100.00,NNW,344,5.0,10.0,18,0.00,,,-99.99,83.000000,,2013-06-11 02:02:00,
2013-06-11 02:32:00,66.0,26.0,-100.00,NNW,336,6.0,16.0,22,0.00,,,0.00,30.000000,,2013-06-11 02:32:00,
2013-06-11 02:43:00,66.0,26.0,-100.00,NNW,336,6.0,16.0,22,0.00,,,0.00,30.000000,,2013-06-11 02:43:00,
2013-06-11 02:52:00,66.0,26.0,-100.00,NNW,336,6.0,16.0,22,0.00,,,0.00,30.000000,,2013-06-11 02:52:00,
2013-06-11 03:02:00,66.0,26.0,-100.00,NNW,336,6.0,16.0,22,0.00,,,0.00,30.000000,,2013-06-11 03:02:00,
2013-06-11 03:33:00,64.0,26.0,-100.00,SW,223,2.0,14.0,24,0.00,,,-99.99,3.000000,,2013-06-11 03:33:00,
2013-06-11 03:43:00,64.0,26.0,-100.00,SW,223,2.0,14.0,24,0.00,,,-99.99,3.000000,,2013-06-11 03:43:00,
2013-06-11 03:53:00,64.0,26.0,-100.00,SW,223,2.0,14.0,24,0.00,,,-99.99,3.000000,,2013-06-11 03:53:00,
2013-06-11 04:03:00,64.0,26.0,-100.00,SW,223,2.0,14.0,24,0.00,,,-99.99,3.000000,,2013-06-11 04:03:00,
2013-06-11 04:33:00,62.0,27.0,-100.00,North,353,2.0,4.0,26,0.00,,,0.00,0.000000,,2013-06-11 04:33:00,
2013-06-11 04:43:00,62.0,27.0,-100.00,North,353,2.0,4.0,26,0.00,,,0.00,0.000000,,2013-06-11 04:43:00,
2013-06-11 04:53:00,62.0,27.0,-100.00,North,353,2.0,4.0,26,0.00,,,0.00,0.000000,,2013-06-11 04:53:00,
2013-06-11 05:02:00,62.0,27.0,-100.00,North,353,2.0,4.0,26,0.00,,,0.00,0.000000,,2013-06-11 05:02:00,
2013-06-11 05:32:00,63.0,28.0,-100.00,South,178,4.0,6.0,26,0.00,,,0.00,0.000000,,2013-06-11 05:32:00,
2013-06-11 05:42:00,63.0,28.0,-100.00,South,178,4.0,6.0,26,0.00,,,0.00,0.000000,,2013-06-11 05:42:00,
2013-06-11 05:52:00,63.0,28.0,-100.00,South,178,4.0,6.0,26,0.00,,,0.00,0.000000,,2013-06-11 05:52:00,
2013-06-11 06:02:00,63.0,28.0,-100.00,South,178,4.0,6.0,26,0.00,,,0.00,0.000000,,2013-06-11 06:02:00,
2013-06-11 06:32:00,61.0,27.0,-100.00,SW,222,3.0,5.0,27,0.00,,,0.00,0.000000,,2013-06-11 06:32:00,
2013-06-11 06:42:00,61.0,27.0,-100.00,SW,222,3.0,5.0,27,0.00,,,0.00,0.000000,,2013-06-11 06:42:00,
2013-06-11 06:52:00,61.0,27.0,-100.00,SW,222,3.0,5.0,27,0.00,,,0.00,0.000000,,2013-06-11 06:52:00,
2013-06-11 07:02:00,61.0,27.0,-100.00,SW,222,3.0,5.0,27,0.00,,,0.00,0.000000,,2013-06-11 07:02:00,
2013-06-11 07:32:00,57.0,25.0,-100.00,SSE,154,3.0,5.0,29,0.00,,,0.00,0.000000,,2013-06-11 07:32:00,
2013-06-11 07:42:00,57.0,25.0,-100.00,SSE,154,3.0,5.0,29,0.00,,,0.00,0.000000,,2013-06-11 07:42:00,
2013-06-11 07:52:00,57.0,25.0,-100.00,SSE,154,3.0,5.0,29,0.00,,,0.00,0.000000,,2013-06-11 07:52:00,
2013-06-11 08:02:00,57.0,25.0,-100.00,SSE,154,3.0,5.0,29,0.00,,,0.00,0.000000,,2013-06-11 08:02:00,
2013-06-11 08:32:00,59.0,19.0,-100.00,SW,226,3.0,5.0,21,0.00,,,0.00,0.000000,,2013-06-11 08:32:00,
2013-06-11 08:42:00,59.0,19.0,-100.00,SW,226,3.0,5.0,21,0.00,,,0.00,0.000000,,2013-06-11 08:42:00,
2013-06-11 08:52:00,59.0,19.0,-100.00,SW,226,3.0,5.0,21,0.00,,,0.00,0.000000,,2013-06-11 08:52:00,
2013-06-11 09:02:00,59.0,19.0,-100.00,SW,226,3.0,5.0,21,0.00,,,0.00,0.000000,,2013-06-11 09:02:00,
2013-06-11 09:33:00,58.0,17.0,-100.00,WNW,286,2.0,9.0,20,-99.99,,,0.00,0.000000,,2013-06-11 09:33:00,
2013-06-11 10:03:00,58.0,17.0,-100.00,WNW,286,2.0,9.0,20,-99.99,,,0.00,0.000000,,2013-06-11 10:03:00,
2013-06-11 10:33:00,56.0,19.0,-100.00,SSE,153,4.0,6.0,23,0.00,,,0.00,0.000000,,2013-06-11 10:33:00,
2013-06-11 10:43:00,56.0,19.0,-100.00,SSE,153,4.0,6.0,23,0.00,,,0.00,0.000000,,2013-06-11 10:43:00,
2013-06-11 10:52:00,56.0,19.0,-100.00,SSE,153,4.0,6.0,23,0.00,,,0.00,0.000000,,2013-06-11 10:52:00,
2013-06-11 11:02:00,56.0,19.0,-100.00,SSE,153,4.0,6.0,23,0.00,,,0.00,0.000000,,2013-06-11 11:02:00,
2013-06-11 11:32:00,58.0,17.0,-100.00,South,172,3.0,7.0,20,0.00,,,-99.99,0.000000,,2013-06-11 11:32:00,
2013-06-11 12:32:00,54.0,19.0,-100.00,South,177,2.0,7.0,25,-99.99,,,-99.99,10.000000,,2013-06-11 12:32:00,
2013-06-11 13:02:00,54.0,19.0,-100.00,South,177,2.0,7.0,25,-99.99,,,-99.99,10.000000,,2013-06-11 13:02:00,
2013-06-11 13:32:00,59.0,18.0,-100.00,SSW,204,1.0,3.0,20,0.00,,,-99.99,145.000000,,2013-06-11 13:32:00,
2013-06-11 14:32:00,64.0,18.0,-100.00,South,171,5.0,8.0,17,0.00,,,0.00,345.000000,,2013-06-11 14:32:00,
2013-06-11 15:33:00,68.0,17.0,-100.00,South,177,4.0,9.0,14,0.00,,,0.00,555.000000,,2013-06-11 15:33:00,
2013-06-11 16:33:00,71.0,9.0,-100.00,South,188,16.0,29.0,9,0.00,,,0.00,726.000000,,2013-06-11 16:33:00,
2013-06-11 17:02:00,71.0,9.0,-100.00,South,188,16.0,29.0,9,0.00,,,0.00,726.000000,,2013-06-11 17:02:00,
2013-06-11 17:32:00,75.0,7.0,-100.00,SSW,209,12.0,28.0,7,0.00,,,0.00,903.000000,,2013-06-11 17:32:00,
2013-06-11 18:02:00,75.0,7.0,-100.00,SSW,209,12.0,28.0,7,0.00,,,0.00,903.000000,,2013-06-11 18:02:00,
2013-06-11 18:33:00,76.0,-4.0,-100.00,SW,219,16.0,37.0,4,0.00,,,0.00,1015.000000,,2013-06-11 18:33:00,
2013-06-11 19:33:00,77.0,-4.0,-100.00,WSW,258,15.0,32.0,4,0.00,,,0.00,1052.000000,,2013-06-11 19:33:00,
2013-06-11 20:32:00,78.0,2.0,-100.00,SW,223,16.0,33.0,5,0.00,,,0.00,1037.000000,,2013-06-11 20:32:00,
2013-06-11 20:42:00,78.0,2.0,-100.00,SW,223,16.0,33.0,5,0.00,,,0.00,1037.000000,,2013-06-11 20:42:00,
2013-06-11 20:52:00,78.0,2.0,-100.00,SW,223,16.0,33.0,5,0.00,,,0.00,1037.000000,,2013-06-11 20:52:00,
2013-06-11 21:02:00,78.0,2.0,-100.00,SW,223,16.0,33.0,5,0.00,,,0.00,1037.000000,,2013-06-11 21:02:00,
2013-06-11 21:33:00,79.0,6.0,-100.00,WSW,243,14.0,32.0,6,0.00,,,0.00,966.000000,,2013-06-11 21:33:00,
2013-06-11 21:42:00,79.0,6.0,-100.00,WSW,243,14.0,32.0,6,0.00,,,0.00,966.000000,,2013-06-11 21:42:00,
2013-06-11 21:53:00,79.0,6.0,-100.00,WSW,243,14.0,32.0,6,0.00,,,0.00,966.000000,,2013-06-11 21:53:00,
2013-06-11 22:03:00,79.0,6.0,-100.00,WSW,243,14.0,32.0,6,0.00,,,0.00,966.000000,,2013-06-11 22:03:00,
2013-06-11 22:33:00,80.0,7.0,-100.00,West,272,9.0,26.0,6,0.00,,,0.00,850.000000,,2013-06-11 22:33:00,
2013-06-11 22:42:00,80.0,7.0,-100.00,West,272,9.0,26.0,6,0.00,,,0.00,850.000000,,2013-06-11 22:42:00,
2013-06-11 22:52:00,80.0,7.0,-100.00,West,272,9.0,26.0,6,0.00,,,0.00,850.000000,,2013-06-11 22:52:00,
2013-06-11 23:02:00,80.0,7.0,-100.00,West,272,9.0,26.0,6,0.00,,,0.00,850.000000,,2013-06-11 23:02:00,
2013-06-11 23:32:00,77.0,5.0,-100.00,West,276,10.0,32.0,6,0.00,,,0.00,614.000000,,2013-06-11 23:32:00,
2013-06-11 23:42:00,77.0,5.0,-100.00,West,276,10.0,32.0,6,0.00,,,0.00,614.000000,,2013-06-11 23:42:00,
2013-06-11 23:52:00,77.0,5.0,-100.00,West,276,10.0,32.0,6,0.00,,,0.00,614.000000,,2013-06-11 23:52:00,